Wetterdaten: Dienstag, 17.05.2016
Datum Zeit Auen-Temp. Temp gefhlt Luftfeuchte Luftdruck Regen Wind Richtung Richtung Sonnenschein Taupunkt Windben
17.05.2016 00:00 3,3 C 3,1 C 88 % 1019,2 hPa 0,0 mm 3,9 km/h (1 Bft) SW 225 0 min 1,5 C 8,3 km/h (2 Bft)
17.05.2016 00:05 3,4 C 3,1 C 88 % 1019,2 hPa 0,0 mm 5,7 km/h (1 Bft) W-SW 247 0 min 1,6 C 10,1 km/h (2 Bft)
17.05.2016 00:10 3,4 C 3,2 C 88 % 1019,2 hPa 0,0 mm 4,5 km/h (1 Bft) SW 225 0 min 1,6 C 4,8 km/h (1 Bft)
17.05.2016 00:15 3,4 C 3,2 C 88 % 1019,1 hPa 0,7 mm 4,8 km/h (1 Bft) W-SW 247 0 min 1,6 C 9,2 km/h (2 Bft)
17.05.2016 00:20 3,4 C 3,2 C 88 % 1019,1 hPa 0,0 mm 3,6 km/h (1 Bft) S-SO 157 0 min 1,6 C 0,0 km/h (0 Bft)
17.05.2016 00:25 3,4 C 3,2 C 88 % 1019,1 hPa 0,0 mm 3,3 km/h (1 Bft) O-NO 67 0 min 1,6 C 4,8 km/h (1 Bft)
17.05.2016 00:30 3,4 C 3,2 C 88 % 1019,1 hPa 0,0 mm 3,0 km/h (1 Bft) SW 225 0 min 1,6 C 7,2 km/h (2 Bft)
17.05.2016 00:35 3,4 C 3,2 C 88 % 1019,1 hPa 0,0 mm 2,1 km/h (1 Bft) S 180 0 min 1,6 C 6,0 km/h (2 Bft)
17.05.2016 00:40 3,4 C 3,2 C 88 % 1019,1 hPa 0,0 mm 2,1 km/h (1 Bft) W-SW 247 0 min 1,6 C 0,0 km/h (0 Bft)
17.05.2016 00:45 3,4 C 3,2 C 88 % 1019,1 hPa 0,0 mm 2,4 km/h (1 Bft) W 270 0 min 1,6 C 3,3 km/h (1 Bft)
17.05.2016 00:50 3,4 C 3,2 C 88 % 1019,1 hPa 0,0 mm 1,8 km/h (1 Bft) NW 315 0 min 1,6 C 0,0 km/h (0 Bft)
17.05.2016 00:55 3,5 C 3,2 C 88 % 1019,1 hPa 0,0 mm 0,3 km/h (0 Bft) W 270 0 min 1,7 C 0,0 km/h (0 Bft)
17.05.2016 01:00 3,5 C 3,3 C 88 % 1019,1 hPa 0,0 mm 0,0 km/h (0 Bft) N-NW 337 0 min 1,7 C 0,0 km/h (0 Bft)
17.05.2016 01:05 3,5 C 3,3 C 88 % 1019,1 hPa 0,0 mm 0,0 km/h (0 Bft) W-SW 247 0 min 1,7 C 0,0 km/h (0 Bft)
17.05.2016 01:10 3,5 C 3,3 C 88 % 1019,1 hPa 0,0 mm 0,0 km/h (0 Bft) S-SO 157 0 min 1,7 C 0,0 km/h (0 Bft)
17.05.2016 01:15 3,5 C 3,3 C 88 % 1019,1 hPa 0,0 mm 0,6 km/h (0 Bft) S-SO 157 0 min 1,7 C 0,0 km/h (0 Bft)
17.05.2016 01:20 3,5 C 3,3 C 88 % 1019,1 hPa 0,0 mm 2,1 km/h (1 Bft) W-SW 247 0 min 1,7 C 4,5 km/h (1 Bft)
17.05.2016 01:25 3,6 C 3,4 C 88 % 1019,1 hPa 0,0 mm 4,2 km/h (1 Bft) W-SW 247 0 min 1,8 C 11,0 km/h (2 Bft)
17.05.2016 01:30 3,6 C 3,4 C 88 % 1019,1 hPa 0,0 mm 4,8 km/h (1 Bft) S 180 0 min 1,8 C 13,7 km/h (3 Bft)
17.05.2016 01:35 3,6 C 3,3 C 88 % 1019,1 hPa 0,0 mm 6,3 km/h (2 Bft) S 180 0 min 1,8 C 8,9 km/h (2 Bft)
17.05.2016 01:40 3,7 C 3,4 C 88 % 1019,1 hPa 0,0 mm 5,7 km/h (1 Bft) SW 225 0 min 1,9 C 5,4 km/h (1 Bft)
17.05.2016 01:41 3,7 C 3,5 C 88 % 1019,1 hPa 0,0 mm 3,6 km/h (1 Bft) SW 225 0 min 1,9 C 6,0 km/h (2 Bft)
17.05.2016 01:45 3,7 C 3,5 C 88 % 1019,1 hPa 0,0 mm 3,6 km/h (1 Bft) SW 225 0 min 1,9 C 6,0 km/h (2 Bft)
17.05.2016 01:50 3,7 C 3,5 C 88 % 1019,1 hPa 0,0 mm 3,9 km/h (1 Bft) W-SW 247 0 min 1,9 C 6,3 km/h (2 Bft)
17.05.2016 01:55 3,6 C 3,4 C 88 % 1018,8 hPa 0,0 mm 4,8 km/h (1 Bft) SW 225 0 min 1,8 C 5,4 km/h (1 Bft)
17.05.2016 02:00 3,6 C 3,4 C 88 % 1018,8 hPa 0,0 mm 4,8 km/h (1 Bft) W-SW 247 0 min 1,8 C 8,0 km/h (2 Bft)
17.05.2016 02:05 3,5 C 3,3 C 88 % 1018,8 hPa 0,0 mm 3,0 km/h (1 Bft) SW 225 0 min 1,7 C 4,2 km/h (1 Bft)
17.05.2016 02:10 3,5 C 3,2 C 88 % 1018,8 hPa 0,0 mm 2,1 km/h (1 Bft) N-NW 337 0 min 1,7 C 0,0 km/h (0 Bft)
17.05.2016 02:15 3,3 C 3,1 C 88 % 1018,8 hPa 0,0 mm 0,6 km/h (0 Bft) O 90 0 min 1,5 C 0,0 km/h (0 Bft)
17.05.2016 02:20 3,2 C 2,9 C 88 % 1018,8 hPa 0,0 mm 0,0 km/h (0 Bft) O-SO 112 0 min 1,4 C 0,0 km/h (0 Bft)
17.05.2016 02:25 3,0 C 2,7 C 88 % 1018,8 hPa 0,0 mm 0,0 km/h (0 Bft) SO 135 0 min 1,2 C 0,0 km/h (0 Bft)
17.05.2016 02:30 3,0 C 2,7 C 88 % 1018,8 hPa 0,0 mm 0,0 km/h (0 Bft) O-NO 67 0 min 1,2 C 0,0 km/h (0 Bft)
17.05.2016 02:35 3,0 C 2,7 C 88 % 1018,8 hPa 0,0 mm 0,3 km/h (0 Bft) W 270 0 min 1,2 C 10,7 km/h (2 Bft)
17.05.2016 02:40 3,0 C 2,7 C 88 % 1018,8 hPa 0,0 mm 0,9 km/h (0 Bft) W-SW 247 0 min 1,2 C 0,0 km/h (0 Bft)
17.05.2016 02:45 3,1 C 2,8 C 89 % 1018,8 hPa 0,0 mm 3,6 km/h (1 Bft) S-SW 202 0 min 1,5 C 6,9 km/h (2 Bft)
17.05.2016 02:50 3,3 C 3,0 C 89 % 1018,8 hPa 0,0 mm 5,1 km/h (1 Bft) S 180 0 min 1,7 C 7,2 km/h (2 Bft)
17.05.2016 02:55 3,4 C 3,0 C 89 % 1018,6 hPa 0,0 mm 6,0 km/h (2 Bft) S-SW 202 0 min 1,8 C 4,2 km/h (1 Bft)
17.05.2016 03:00 3,4 C 3,1 C 89 % 1018,6 hPa 0,0 mm 5,7 km/h (1 Bft) S 180 0 min 1,8 C 7,7 km/h (2 Bft)
17.05.2016 03:05 3,5 C 3,2 C 89 % 1018,6 hPa 0,0 mm 5,1 km/h (1 Bft) SW 225 0 min 1,9 C 5,7 km/h (1 Bft)
17.05.2016 03:10 3,5 C 3,2 C 89 % 1018,6 hPa 0,0 mm 5,7 km/h (1 Bft) S 180 0 min 1,9 C 9,5 km/h (2 Bft)
17.05.2016 03:15 3,5 C 3,2 C 89 % 1018,3 hPa 0,0 mm 5,7 km/h (1 Bft) SW 225 0 min 1,9 C 4,8 km/h (1 Bft)
17.05.2016 03:20 3,5 C 3,2 C 89 % 1018,3 hPa 0,0 mm 3,9 km/h (1 Bft) S 180 0 min 1,9 C 3,3 km/h (1 Bft)
17.05.2016 03:25 3,4 C 3,1 C 89 % 1018,3 hPa 0,0 mm 0,6 km/h (0 Bft) SO 135 0 min 1,8 C 0,0 km/h (0 Bft)
17.05.2016 03:30 3,4 C 3,2 C 89 % 1018,3 hPa 0,0 mm 0,3 km/h (0 Bft) S-SO 157 0 min 1,8 C 0,0 km/h (0 Bft)
17.05.2016 03:35 3,3 C 3,1 C 89 % 1018,1 hPa 0,0 mm 0,0 km/h (0 Bft) S-SO 157 0 min 1,7 C 0,0 km/h (0 Bft)
17.05.2016 03:40 3,3 C 3,1 C 89 % 1018,1 hPa 0,0 mm 0,0 km/h (0 Bft) SO 135 0 min 1,7 C 0,0 km/h (0 Bft)
17.05.2016 03:45 3,3 C 3,1 C 89 % 1018,1 hPa 0,0 mm 0,0 km/h (0 Bft) O-SO 112 0 min 1,7 C 0,0 km/h (0 Bft)
17.05.2016 03:50 3,3 C 3,1 C 90 % 1018,1 hPa 0,0 mm 0,0 km/h (0 Bft) O-NO 67 0 min 1,8 C 0,0 km/h (0 Bft)
17.05.2016 03:55 3,2 C 3,0 C 90 % 1017,9 hPa 0,0 mm 0,0 km/h (0 Bft) SW 225 0 min 1,7 C 3,0 km/h (1 Bft)
17.05.2016 04:00 3,2 C 3,0 C 90 % 1017,9 hPa 0,0 mm 0,3 km/h (0 Bft) W-SW 247 0 min 1,7 C 0,0 km/h (0 Bft)
17.05.2016 04:05 3,2 C 3,0 C 90 % 1017,9 hPa 0,0 mm 0,3 km/h (0 Bft) NO 45 0 min 1,7 C 0,0 km/h (0 Bft)
17.05.2016 04:10 3,2 C 3,0 C 90 % 1017,9 hPa 0,0 mm 0,0 km/h (0 Bft) SO 135 0 min 1,7 C 0,0 km/h (0 Bft)
17.05.2016 04:15 3,2 C 3,0 C 90 % 1017,8 hPa 0,0 mm 1,2 km/h (1 Bft) W-NW 292 0 min 1,7 C 0,0 km/h (0 Bft)
17.05.2016 04:20 3,2 C 3,0 C 90 % 1017,8 hPa 0,0 mm 1,2 km/h (1 Bft) W-SW 247 0 min 1,7 C 0,0 km/h (0 Bft)
17.05.2016 04:25 3,2 C 3,0 C 90 % 1017,8 hPa 0,0 mm 2,7 km/h (1 Bft) SO 135 0 min 1,7 C 3,0 km/h (1 Bft)
17.05.2016 04:30 3,2 C 3,0 C 90 % 1017,8 hPa 0,0 mm 2,4 km/h (1 Bft) O-NO 67 0 min 1,7 C 0,0 km/h (0 Bft)
17.05.2016 04:35 3,2 C 2,9 C 90 % 1017,8 hPa 0,0 mm 1,5 km/h (1 Bft) SO 135 0 min 1,7 C 4,8 km/h (1 Bft)
17.05.2016 04:40 3,2 C 3,0 C 90 % 1017,8 hPa 0,0 mm 2,1 km/h (1 Bft) W-SW 247 0 min 1,7 C 5,4 km/h (1 Bft)
17.05.2016 04:41 3,2 C 3,0 C 90 % 1017,8 hPa 0,0 mm 1,5 km/h (1 Bft) O-SO 112 0 min 1,7 C 0,0 km/h (0 Bft)
17.05.2016 04:46 3,2 C 3,0 C 90 % 1017,8 hPa 0,0 mm 1,5 km/h (1 Bft) O-SO 112 0 min 1,7 C 0,0 km/h (0 Bft)
17.05.2016 04:50 3,2 C 3,0 C 90 % 1017,8 hPa 0,0 mm 1,8 km/h (1 Bft) S 180 0 min 1,7 C 0,0 km/h (0 Bft)
17.05.2016 04:55 3,2 C 3,0 C 90 % 1017,8 hPa 0,0 mm 2,7 km/h (1 Bft) S 180 0 min 1,7 C 5,1 km/h (1 Bft)
17.05.2016 05:00 3,3 C 3,1 C 90 % 1017,8 hPa 0,0 mm 2,4 km/h (1 Bft) S-SO 157 0 min 1,8 C 0,0 km/h (0 Bft)
17.05.2016 05:05 3,3 C 3,1 C 90 % 1017,8 hPa 0,0 mm 1,5 km/h (1 Bft) SO 135 0 min 1,8 C 0,0 km/h (0 Bft)
17.05.2016 05:10 3,3 C 3,1 C 90 % 1017,8 hPa 0,0 mm 0,9 km/h (0 Bft) S-SO 157 0 min 1,8 C 0,0 km/h (0 Bft)
17.05.2016 05:15 3,3 C 3,1 C 90 % 1017,6 hPa 0,0 mm 0,9 km/h (0 Bft) W-SW 247 0 min 1,8 C 6,9 km/h (2 Bft)
17.05.2016 05:20 3,3 C 3,1 C 90 % 1017,6 hPa 0,0 mm 0,9 km/h (0 Bft) O 90 0 min 1,8 C 0,0 km/h (0 Bft)
17.05.2016 05:25 3,3 C 3,1 C 90 % 1017,6 hPa 0,0 mm 0,3 km/h (0 Bft) O-NO 67 0 min 1,8 C 0,0 km/h (0 Bft)
17.05.2016 05:30 3,2 C 3,0 C 90 % 1017,6 hPa 0,0 mm 0,3 km/h (0 Bft) S 180 0 min 1,7 C 3,6 km/h (1 Bft)
17.05.2016 05:35 3,3 C 3,1 C 90 % 1017,6 hPa 0,0 mm 0,6 km/h (0 Bft) SW 225 0 min 1,8 C 0,0 km/h (0 Bft)
17.05.2016 05:40 3,3 C 3,1 C 90 % 1017,6 hPa 0,0 mm 1,8 km/h (1 Bft) S 180 0 min 1,8 C 0,0 km/h (0 Bft)
17.05.2016 05:45 3,5 C 3,2 C 90 % 1017,6 hPa 0,0 mm 3,9 km/h (1 Bft) S 180 0 min 2,0 C 6,9 km/h (2 Bft)
17.05.2016 05:50 3,6 C 3,3 C 90 % 1017,6 hPa 0,0 mm 4,2 km/h (1 Bft) S-SW 202 0 min 2,1 C 5,4 km/h (1 Bft)
17.05.2016 05:55 3,8 C 3,5 C 90 % 1017,7 hPa 0,0 mm 4,8 km/h (1 Bft) W-SW 247 0 min 2,3 C 3,3 km/h (1 Bft)
17.05.2016 06:00 3,8 C 3,6 C 90 % 1017,7 hPa 0,0 mm 3,9 km/h (1 Bft) SW 225 0 min 2,3 C 5,1 km/h (1 Bft)
17.05.2016 06:05 3,9 C 3,7 C 90 % 1017,7 hPa 0,0 mm 3,9 km/h (1 Bft) SW 225 0 min 2,4 C 3,9 km/h (1 Bft)
17.05.2016 06:10 3,9 C 3,7 C 90 % 1017,7 hPa 0,0 mm 4,5 km/h (1 Bft) W-SW 247 0 min 2,4 C 6,0 km/h (2 Bft)
17.05.2016 06:15 3,9 C 3,8 C 89 % 1017,5 hPa 0,0 mm 4,5 km/h (1 Bft) S 180 0 min 2,3 C 7,2 km/h (2 Bft)
17.05.2016 06:20 3,9 C 3,8 C 89 % 1017,5 hPa 0,0 mm 4,5 km/h (1 Bft) W-SW 247 0 min 2,3 C 8,3 km/h (2 Bft)
17.05.2016 06:25 3,8 C 3,7 C 89 % 1017,5 hPa 0,0 mm 5,4 km/h (1 Bft) SO 135 0 min 2,2 C 0,0 km/h (0 Bft)
17.05.2016 06:30 3,8 C 3,6 C 89 % 1017,5 hPa 0,0 mm 6,0 km/h (2 Bft) SW 225 0 min 2,2 C 9,5 km/h (2 Bft)
17.05.2016 06:35 3,8 C 3,6 C 89 % 1017,7 hPa 0,0 mm 5,7 km/h (1 Bft) SW 225 0 min 2,2 C 9,2 km/h (2 Bft)
17.05.2016 06:40 3,8 C 3,4 C 89 % 1017,7 hPa 0,0 mm 8,3 km/h (2 Bft) S 180 0 min 2,2 C 12,5 km/h (3 Bft)
17.05.2016 06:45 3,9 C 3,5 C 88 % 1017,7 hPa 0,0 mm 8,6 km/h (2 Bft) W-SW 247 0 min 2,1 C 6,3 km/h (2 Bft)
17.05.2016 06:50 3,9 C 3,6 C 88 % 1017,7 hPa 0,0 mm 8,0 km/h (2 Bft) S 180 0 min 2,1 C 8,9 km/h (2 Bft)
17.05.2016 06:55 4,0 C 3,7 C 88 % 1017,9 hPa 0,0 mm 7,2 km/h (2 Bft) SW 225 0 min 2,2 C 8,9 km/h (2 Bft)
17.05.2016 07:00 4,1 C 3,8 C 88 % 1017,9 hPa 0,0 mm 7,2 km/h (2 Bft) S 180 0 min 2,3 C 4,5 km/h (1 Bft)
17.05.2016 07:05 4,3 C 4,1 C 88 % 1017,9 hPa 0,0 mm 7,2 km/h (2 Bft) SW 225 0 min 2,5 C 11,6 km/h (2 Bft)
17.05.2016 07:10 4,3 C 4,2 C 87 % 1017,9 hPa 0,0 mm 6,6 km/h (2 Bft) W-SW 247 0 min 2,3 C 5,1 km/h (1 Bft)
17.05.2016 07:15 4,3 C 4,1 C 87 % 1017,8 hPa 0,0 mm 7,5 km/h (2 Bft) SW 225 0 min 2,3 C 17,0 km/h (3 Bft)
17.05.2016 07:20 4,6 C 4,3 C 87 % 1017,8 hPa 0,0 mm 7,7 km/h (2 Bft) SW 225 0 min 2,6 C 9,5 km/h (2 Bft)
17.05.2016 07:25 6,0 C 6,7 C 86 % 1017,8 hPa 0,0 mm 4,8 km/h (1 Bft) NW 315 0 min 3,8 C 3,3 km/h (1 Bft)
17.05.2016 07:30 6,4 C 9,0 C 86 % 1017,8 hPa 0,0 mm 4,2 km/h (1 Bft) W 270 5 min 4,2 C 8,3 km/h (2 Bft)
17.05.2016 07:35 5,7 C 7,9 C 86 % 1017,9 hPa 0,0 mm 5,1 km/h (1 Bft) NW 315 5 min 3,5 C 4,2 km/h (1 Bft)
17.05.2016 07:40 5,7 C 7,2 C 86 % 1017,9 hPa 0,0 mm 3,9 km/h (1 Bft) N-NW 337 0 min 3,5 C 0,0 km/h (0 Bft)
17.05.2016 07:45 5,9 C 6,9 C 86 % 1017,9 hPa 0,0 mm 0,9 km/h (0 Bft) S-SO 157 0 min 3,7 C 0,0 km/h (0 Bft)
17.05.2016 07:46 5,7 C 6,8 C 86 % 1017,9 hPa 0,0 mm 0,9 km/h (0 Bft) S 180 0 min 3,5 C 3,3 km/h (1 Bft)
17.05.2016 07:47 5,7 C 6,8 C 86 % 1017,9 hPa 0,0 mm 0,9 km/h (0 Bft) S 180 0 min 3,5 C 3,3 km/h (1 Bft)
17.05.2016 07:50 5,7 C 6,8 C 86 % 1017,9 hPa 0,0 mm 0,9 km/h (0 Bft) S 180 0 min 3,5 C 3,3 km/h (1 Bft)
17.05.2016 07:55 5,7 C 6,6 C 85 % 1018,2 hPa 0,0 mm 1,2 km/h (1 Bft) NW 315 0 min 3,4 C 4,2 km/h (1 Bft)
17.05.2016 08:00 5,6 C 6,5 C 85 % 1018,2 hPa 0,0 mm 1,5 km/h (1 Bft) NW 315 0 min 3,3 C 5,7 km/h (1 Bft)
17.05.2016 08:05 5,6 C 6,2 C 85 % 1018,2 hPa 0,0 mm 3,3 km/h (1 Bft) NW 315 0 min 3,3 C 5,4 km/h (1 Bft)
17.05.2016 08:10 5,7 C 6,2 C 85 % 1018,2 hPa 0,0 mm 3,0 km/h (1 Bft) W-SW 247 0 min 3,4 C 0,0 km/h (0 Bft)
17.05.2016 08:15 5,7 C 6,3 C 85 % 1018,2 hPa 0,0 mm 2,1 km/h (1 Bft) W-SW 247 0 min 3,4 C 3,6 km/h (1 Bft)
17.05.2016 08:20 5,8 C 6,3 C 85 % 1018,2 hPa 0,0 mm 1,8 km/h (1 Bft) W-SW 247 0 min 3,5 C 3,3 km/h (1 Bft)
17.05.2016 08:25 5,9 C 6,5 C 85 % 1018,2 hPa 0,0 mm 1,5 km/h (1 Bft) NW 315 0 min 3,6 C 0,0 km/h (0 Bft)
17.05.2016 08:30 6,0 C 6,6 C 84 % 1018,2 hPa 0,0 mm 1,5 km/h (1 Bft) W-NW 292 0 min 3,5 C 5,4 km/h (1 Bft)
17.05.2016 08:35 6,2 C 6,9 C 83 % 1018,2 hPa 0,0 mm 2,1 km/h (1 Bft) NW 315 0 min 3,5 C 4,8 km/h (1 Bft)
17.05.2016 08:40 6,4 C 7,1 C 84 % 1018,2 hPa 0,0 mm 2,7 km/h (1 Bft) W-SW 247 0 min 3,9 C 5,4 km/h (1 Bft)
17.05.2016 08:45 6,5 C 7,4 C 83 % 1018,2 hPa 0,0 mm 3,6 km/h (1 Bft) W 270 0 min 3,8 C 5,7 km/h (1 Bft)
17.05.2016 08:50 6,6 C 7,5 C 83 % 1018,2 hPa 0,0 mm 4,5 km/h (1 Bft) W-SW 247 0 min 3,9 C 3,0 km/h (1 Bft)
17.05.2016 08:55 6,7 C 7,7 C 83 % 1018,3 hPa 0,0 mm 3,3 km/h (1 Bft) W-NW 292 0 min 4,0 C 0,0 km/h (0 Bft)
17.05.2016 09:00 6,7 C 7,8 C 83 % 1018,3 hPa 0,0 mm 2,7 km/h (1 Bft) S-SW 202 0 min 4,0 C 5,1 km/h (1 Bft)
17.05.2016 09:05 6,9 C 7,9 C 82 % 1018,3 hPa 0,0 mm 2,1 km/h (1 Bft) NW 315 0 min 4,0 C 4,5 km/h (1 Bft)
17.05.2016 09:10 7,0 C 8,1 C 81 % 1018,3 hPa 0,0 mm 3,0 km/h (1 Bft) NW 315 0 min 4,0 C 3,0 km/h (1 Bft)
17.05.2016 09:16 7,5 C 8,7 C 81 % 1018,5 hPa 0,0 mm 4,2 km/h (1 Bft) W-SW 247 0 min 4,5 C 17,3 km/h (3 Bft)
17.05.2016 09:20 7,6 C 9,0 C 81 % 1018,5 hPa 0,0 mm 4,8 km/h (1 Bft) NW 315 0 min 4,6 C 4,5 km/h (1 Bft)
17.05.2016 09:25 7,8 C 9,5 C 80 % 1018,5 hPa 0,0 mm 6,0 km/h (2 Bft) W 270 0 min 4,6 C 17,6 km/h (3 Bft)
17.05.2016 09:30 8,0 C 9,8 C 80 % 1018,5 hPa 0,0 mm 6,0 km/h (2 Bft) W 270 0 min 4,8 C 3,0 km/h (1 Bft)
17.05.2016 09:35 8,2 C 10,0 C 80 % 1018,3 hPa 0,0 mm 6,0 km/h (2 Bft) N-NW 337 0 min 5,0 C 7,7 km/h (2 Bft)
17.05.2016 09:40 8,5 C 10,3 C 79 % 1018,3 hPa 0,0 mm 5,7 km/h (1 Bft) W-SW 247 0 min 5,1 C 8,9 km/h (2 Bft)
17.05.2016 09:45 8,6 C 10,9 C 79 % 1018,3 hPa 0,0 mm 7,2 km/h (2 Bft) NW 315 5 min 5,2 C 18,5 km/h (3 Bft)
17.05.2016 09:50 9,0 C 11,2 C 79 % 1018,3 hPa 0,0 mm 7,5 km/h (2 Bft) W 270 5 min 5,6 C 6,3 km/h (2 Bft)
17.05.2016 09:55 9,7 C 12,2 C 78 % 1018,6 hPa 0,0 mm 6,6 km/h (2 Bft) W-SW 247 5 min 6,1 C 16,1 km/h (3 Bft)
17.05.2016 10:00 9,6 C 12,5 C 77 % 1018,6 hPa 0,0 mm 6,3 km/h (2 Bft) SO 135 5 min 5,8 C 5,1 km/h (1 Bft)
17.05.2016 10:05 10,0 C 12,7 C 76 % 1018,6 hPa 0,0 mm 6,3 km/h (2 Bft) NW 315 5 min 6,0 C 19,4 km/h (3 Bft)
17.05.2016 10:10 10,0 C 13,4 C 76 % 1018,6 hPa 0,0 mm 5,7 km/h (1 Bft) W-SW 247 5 min 6,0 C 9,8 km/h (2 Bft)
17.05.2016 10:15 9,3 C 12,6 C 75 % 1018,7 hPa 0,0 mm 7,2 km/h (2 Bft) W-SW 247 5 min 5,1 C 5,1 km/h (1 Bft)
17.05.2016 10:20 9,1 C 12,2 C 75 % 1018,7 hPa 0,0 mm 6,6 km/h (2 Bft) W-SW 247 5 min 4,9 C 9,8 km/h (2 Bft)
17.05.2016 10:25 9,3 C 11,5 C 75 % 1018,7 hPa 0,0 mm 5,1 km/h (1 Bft) NW 315 5 min 5,1 C 6,3 km/h (2 Bft)
17.05.2016 10:30 9,8 C 11,8 C 75 % 1018,7 hPa 0,0 mm 4,8 km/h (1 Bft) NW 315 0 min 5,6 C 6,6 km/h (2 Bft)
17.05.2016 10:35 9,3 C 11,9 C 75 % 1018,7 hPa 0,0 mm 3,6 km/h (1 Bft) W-NW 292 5 min 5,1 C 3,9 km/h (1 Bft)
17.05.2016 10:40 8,8 C 11,2 C 74 % 1018,7 hPa 0,0 mm 3,3 km/h (1 Bft) N 360 5 min 4,4 C 0,0 km/h (0 Bft)
17.05.2016 10:45 8,7 C 10,3 C 74 % 1018,7 hPa 0,0 mm 1,5 km/h (1 Bft) W-SW 247 0 min 4,3 C 6,3 km/h (2 Bft)
17.05.2016 10:46 9,2 C 10,3 C 75 % 1018,7 hPa 0,0 mm 1,8 km/h (1 Bft) W 270 0 min 5,0 C 0,0 km/h (0 Bft)
17.05.2016 10:48 9,2 C 10,3 C 75 % 1018,7 hPa 0,0 mm 1,8 km/h (1 Bft) W 270 0 min 5,0 C 0,0 km/h (0 Bft)
17.05.2016 10:50 9,2 C 10,3 C 75 % 1018,7 hPa 0,0 mm 1,8 km/h (1 Bft) W 270 0 min 5,0 C 0,0 km/h (0 Bft)
17.05.2016 10:55 10,7 C 12,6 C 74 % 1018,8 hPa 0,0 mm 4,5 km/h (1 Bft) W 270 0 min 6,3 C 8,3 km/h (2 Bft)
17.05.2016 11:00 11,0 C 13,5 C 74 % 1018,8 hPa 0,0 mm 5,1 km/h (1 Bft) NW 315 5 min 6,5 C 3,6 km/h (1 Bft)
17.05.2016 11:05 10,8 C 14,1 C 73 % 1018,8 hPa 0,0 mm 6,0 km/h (2 Bft) NW 315 5 min 6,2 C 8,9 km/h (2 Bft)
17.05.2016 11:10 11,3 C 14,2 C 73 % 1018,8 hPa 0,0 mm 7,2 km/h (2 Bft) NW 315 5 min 6,6 C 10,7 km/h (2 Bft)
17.05.2016 11:15 10,7 C 13,8 C 72 % 1018,7 hPa 0,0 mm 7,2 km/h (2 Bft) W 270 5 min 5,9 C 22,7 km/h (4 Bft)
17.05.2016 11:20 9,9 C 13,1 C 71 % 1018,7 hPa 0,0 mm 7,5 km/h (2 Bft) W-NW 292 5 min 4,9 C 16,7 km/h (3 Bft)
17.05.2016 11:25 9,2 C 10,9 C 70 % 1018,7 hPa 0,0 mm 12,5 km/h (3 Bft) W 270 0 min 4,0 C 30,7 km/h (5 Bft)
17.05.2016 11:30 9,3 C 10,2 C 70 % 1018,7 hPa 0,0 mm 13,1 km/h (3 Bft) S 180 0 min 4,1 C 4,2 km/h (1 Bft)
17.05.2016 11:35 9,6 C 10,8 C 70 % 1018,8 hPa 0,0 mm 6,3 km/h (2 Bft) NW 315 0 min 4,4 C 0,0 km/h (0 Bft)
17.05.2016 11:40 9,8 C 11,0 C 71 % 1018,8 hPa 0,0 mm 4,2 km/h (1 Bft) S 180 0 min 4,8 C 0,0 km/h (0 Bft)
17.05.2016 11:45 9,9 C 11,2 C 71 % 1018,8 hPa 0,0 mm 3,9 km/h (1 Bft) W 270 0 min 4,9 C 0,0 km/h (0 Bft)
17.05.2016 11:50 10,1 C 11,5 C 71 % 1018,8 hPa 0,0 mm 4,2 km/h (1 Bft) S-SO 157 0 min 5,1 C 7,5 km/h (2 Bft)
17.05.2016 11:55 9,3 C 11,0 C 71 % 1018,9 hPa 0,0 mm 7,2 km/h (2 Bft) W-SW 247 0 min 4,3 C 14,9 km/h (3 Bft)
17.05.2016 12:00 8,5 C 9,3 C 71 % 1018,9 hPa 0,0 mm 8,6 km/h (2 Bft) NW 315 0 min 3,5 C 6,9 km/h (2 Bft)
17.05.2016 12:05 8,8 C 8,7 C 72 % 1018,9 hPa 0,0 mm 4,8 km/h (1 Bft) NW 315 0 min 4,0 C 11,6 km/h (2 Bft)
17.05.2016 12:10 8,8 C 8,7 C 72 % 1018,9 hPa 0,0 mm 3,3 km/h (1 Bft) W 270 0 min 4,0 C 6,3 km/h (2 Bft)
17.05.2016 12:15 9,1 C 9,1 C 73 % 1018,8 hPa 0,0 mm 7,2 km/h (2 Bft) NW 315 0 min 4,5 C 13,4 km/h (3 Bft)
17.05.2016 12:20 9,9 C 9,8 C 73 % 1018,8 hPa 0,0 mm 8,0 km/h (2 Bft) W 270 0 min 5,3 C 17,3 km/h (3 Bft)
17.05.2016 12:25 10,6 C 11,4 C 73 % 1018,8 hPa 0,0 mm 8,0 km/h (2 Bft) SW 225 0 min 6,0 C 24,7 km/h (4 Bft)
17.05.2016 12:30 10,7 C 11,9 C 73 % 1018,8 hPa 0,0 mm 7,5 km/h (2 Bft) W-SW 247 0 min 6,1 C 14,0 km/h (3 Bft)
17.05.2016 12:35 10,0 C 11,7 C 72 % 1018,7 hPa 0,0 mm 7,7 km/h (2 Bft) SO 135 0 min 5,2 C 3,0 km/h (1 Bft)
17.05.2016 12:40 10,1 C 11,6 C 71 % 1018,7 hPa 0,0 mm 8,9 km/h (2 Bft) W-NW 292 0 min 5,1 C 19,1 km/h (3 Bft)
17.05.2016 12:45 10,5 C 11,6 C 70 % 1018,7 hPa 0,0 mm 10,7 km/h (2 Bft) W 270 0 min 5,3 C 21,2 km/h (4 Bft)
17.05.2016 12:50 11,5 C 12,6 C 70 % 1018,7 hPa 0,0 mm 10,4 km/h (2 Bft) W-SW 247 0 min 6,2 C 11,6 km/h (2 Bft)
17.05.2016 12:55 13,0 C 14,2 C 69 % 1018,7 hPa 0,0 mm 9,5 km/h (2 Bft) NW 315 0 min 7,4 C 15,8 km/h (3 Bft)
17.05.2016 13:00 13,3 C 15,5 C 68 % 1018,7 hPa 0,0 mm 11,9 km/h (2 Bft) NW 315 5 min 7,5 C 29,8 km/h (5 Bft)
17.05.2016 13:05 10,4 C 14,2 C 65 % 1018,7 hPa 0,0 mm 14,6 km/h (3 Bft) W-NW 292 5 min 4,1 C 20,0 km/h (4 Bft)
17.05.2016 13:10 9,8 C 11,4 C 65 % 1018,7 hPa 0,0 mm 13,1 km/h (3 Bft) W 270 0 min 3,5 C 9,8 km/h (2 Bft)
17.05.2016 13:15 9,4 C 9,7 C 66 % 1018,8 hPa 0,0 mm 9,8 km/h (2 Bft) W 270 0 min 3,4 C 6,9 km/h (2 Bft)
17.05.2016 13:20 9,4 C 9,4 C 66 % 1018,8 hPa 0,0 mm 6,9 km/h (2 Bft) NW 315 0 min 3,4 C 10,7 km/h (2 Bft)
17.05.2016 13:25 10,3 C 10,2 C 68 % 1018,8 hPa 0,0 mm 4,8 km/h (1 Bft) SW 225 0 min 4,7 C 3,9 km/h (1 Bft)
17.05.2016 13:30 10,7 C 11,1 C 68 % 1018,8 hPa 0,0 mm 5,1 km/h (1 Bft) NW 315 0 min 5,0 C 13,4 km/h (3 Bft)
17.05.2016 13:35 11,6 C 12,6 C 67 % 1018,9 hPa 0,0 mm 7,7 km/h (2 Bft) NW 315 0 min 5,7 C 8,0 km/h (2 Bft)
17.05.2016 13:40 12,1 C 13,8 C 67 % 1018,9 hPa 0,0 mm 9,2 km/h (2 Bft) W 270 0 min 6,2 C 14,0 km/h (3 Bft)
17.05.2016 13:45 12,2 C 14,4 C 65 % 1018,9 hPa 0,0 mm 9,5 km/h (2 Bft) W 270 5 min 5,8 C 14,6 km/h (3 Bft)
17.05.2016 13:46 12,2 C 14,7 C 64 % 1018,9 hPa 0,0 mm 11,0 km/h (2 Bft) W 270 1 min 5,6 C 14,0 km/h (3 Bft)
17.05.2016 13:49 12,2 C 14,7 C 64 % 1018,9 hPa 0,0 mm 11,0 km/h (2 Bft) W 270 3 min 5,6 C 14,0 km/h (3 Bft)
17.05.2016 13:50 12,2 C 14,7 C 64 % 1018,9 hPa 0,0 mm 11,0 km/h (2 Bft) W 270 1 min 5,6 C 14,0 km/h (3 Bft)
17.05.2016 13:55 13,0 C 15,1 C 63 % 1018,8 hPa 0,0 mm 10,7 km/h (2 Bft) W-NW 292 0 min 6,1 C 22,1 km/h (4 Bft)
17.05.2016 14:00 13,1 C 15,6 C 63 % 1018,8 hPa 0,0 mm 10,4 km/h (2 Bft) W 270 5 min 6,2 C 26,8 km/h (4 Bft)
17.05.2016 14:05 12,9 C 15,9 C 62 % 1018,8 hPa 0,0 mm 10,7 km/h (2 Bft) W 270 5 min 5,8 C 16,4 km/h (3 Bft)
17.05.2016 14:10 12,3 C 15,4 C 60 % 1018,8 hPa 0,0 mm 11,0 km/h (2 Bft) W 270 5 min 4,8 C 20,9 km/h (4 Bft)
17.05.2016 14:15 12,0 C 14,6 C 60 % 1018,7 hPa 0,0 mm 9,8 km/h (2 Bft) W 270 5 min 4,5 C 8,0 km/h (2 Bft)
17.05.2016 14:20 12,5 C 14,5 C 59 % 1018,7 hPa 0,0 mm 9,8 km/h (2 Bft) SW 225 0 min 4,7 C 10,4 km/h (2 Bft)
17.05.2016 14:25 13,8 C 15,4 C 59 % 1018,7 hPa 0,0 mm 9,2 km/h (2 Bft) N-NW 337 0 min 5,9 C 6,9 km/h (2 Bft)
17.05.2016 14:30 14,7 C 16,8 C 59 % 1018,7 hPa 0,0 mm 10,1 km/h (2 Bft) S 180 0 min 6,8 C 8,9 km/h (2 Bft)
17.05.2016 14:35 14,6 C 17,4 C 58 % 1018,5 hPa 0,0 mm 10,7 km/h (2 Bft) W-NW 292 5 min 6,4 C 17,3 km/h (3 Bft)
17.05.2016 14:40 14,4 C 17,1 C 58 % 1018,5 hPa 0,0 mm 11,0 km/h (2 Bft) W 270 5 min 6,2 C 15,8 km/h (3 Bft)
17.05.2016 14:45 14,5 C 17,3 C 57 % 1018,5 hPa 0,0 mm 13,4 km/h (3 Bft) W-NW 292 5 min 6,1 C 20,3 km/h (4 Bft)
17.05.2016 14:50 15,7 C 17,9 C 57 % 1018,5 hPa 0,0 mm 13,7 km/h (3 Bft) W-SW 247 5 min 7,2 C 21,5 km/h (4 Bft)
17.05.2016 14:55 15,7 C 19,1 C 56 % 1018,4 hPa 0,0 mm 13,1 km/h (3 Bft) W 270 5 min 6,9 C 15,2 km/h (3 Bft)
17.05.2016 15:00 15,3 C 18,5 C 55 % 1018,4 hPa 0,0 mm 14,0 km/h (3 Bft) NW 315 5 min 6,3 C 29,2 km/h (5 Bft)
17.05.2016 15:05 16,2 C 19,1 C 55 % 1018,4 hPa 0,0 mm 12,2 km/h (2 Bft) W-NW 292 5 min 7,2 C 35,5 km/h (5 Bft)
17.05.2016 15:10 16,2 C 19,4 C 54 % 1018,4 hPa 0,0 mm 11,3 km/h (2 Bft) S-SW 202 5 min 6,9 C 24,1 km/h (4 Bft)
17.05.2016 15:15 13,6 C 17,8 C 56 % 1018,2 hPa 0,0 mm 10,4 km/h (2 Bft) W 270 5 min 5,0 C 11,9 km/h (2 Bft)
17.05.2016 15:20 12,5 C 15,6 C 56 % 1018,2 hPa 0,0 mm 9,8 km/h (2 Bft) W-NW 292 5 min 4,0 C 8,0 km/h (2 Bft)
17.05.2016 15:25 11,9 C 13,6 C 57 % 1018,2 hPa 0,0 mm 7,2 km/h (2 Bft) W 270 0 min 3,7 C 9,2 km/h (2 Bft)
17.05.2016 15:30 11,3 C 12,3 C 58 % 1018,2 hPa 0,0 mm 8,3 km/h (2 Bft) N-NW 337 0 min 3,3 C 16,7 km/h (3 Bft)
17.05.2016 15:35 11,8 C 11,6 C 59 % 1018,3 hPa 0,0 mm 12,5 km/h (3 Bft) NW 315 0 min 4,1 C 12,2 km/h (2 Bft)
17.05.2016 15:40 12,1 C 12,0 C 59 % 1018,3 hPa 0,0 mm 12,5 km/h (3 Bft) W-NW 292 0 min 4,3 C 8,9 km/h (2 Bft)
17.05.2016 15:45 13,4 C 13,3 C 59 % 1018,3 hPa 0,0 mm 12,8 km/h (3 Bft) W-NW 292 0 min 5,6 C 21,5 km/h (4 Bft)
17.05.2016 15:50 13,4 C 14,3 C 59 % 1018,3 hPa 0,0 mm 12,5 km/h (3 Bft) N-NW 337 0 min 5,6 C 8,9 km/h (2 Bft)
17.05.2016 15:55 12,5 C 14,4 C 59 % 1018,4 hPa 0,0 mm 11,3 km/h (2 Bft) O-SO 112 0 min 4,7 C 19,4 km/h (3 Bft)
17.05.2016 16:00 12,1 C 14,0 C 59 % 1018,4 hPa 0,0 mm 10,4 km/h (2 Bft) W 270 0 min 4,3 C 15,5 km/h (3 Bft)
17.05.2016 16:05 12,6 C 13,8 C 59 % 1018,4 hPa 0,0 mm 9,5 km/h (2 Bft) W 270 0 min 4,8 C 12,2 km/h (2 Bft)
17.05.2016 16:10 14,1 C 15,1 C 59 % 1018,4 hPa 0,0 mm 7,7 km/h (2 Bft) W-NW 292 0 min 6,2 C 12,2 km/h (2 Bft)
17.05.2016 16:15 13,2 C 16,8 C 58 % 1017,9 hPa 0,0 mm 8,9 km/h (2 Bft) W-NW 292 5 min 5,1 C 15,2 km/h (3 Bft)
17.05.2016 16:20 13,2 C 16,2 C 58 % 1017,9 hPa 0,0 mm 11,0 km/h (2 Bft) W 270 5 min 5,1 C 15,2 km/h (3 Bft)
17.05.2016 16:25 12,9 C 16,1 C 58 % 1017,9 hPa 0,0 mm 12,2 km/h (2 Bft) SW 225 5 min 4,8 C 16,7 km/h (3 Bft)
17.05.2016 16:30 12,5 C 15,4 C 58 % 1017,9 hPa 0,0 mm 12,8 km/h (3 Bft) W 270 5 min 4,5 C 9,5 km/h (2 Bft)
17.05.2016 16:35 12,6 C 14,7 C 58 % 1017,8 hPa 0,0 mm 12,2 km/h (2 Bft) W-NW 292 0 min 4,6 C 17,3 km/h (3 Bft)
17.05.2016 16:40 12,4 C 14,3 C 58 % 1017,8 hPa 0,0 mm 9,5 km/h (2 Bft) NW 315 0 min 4,4 C 18,2 km/h (3 Bft)
17.05.2016 16:45 12,9 C 14,4 C 58 % 1017,8 hPa 0,0 mm 7,7 km/h (2 Bft) W-SW 247 0 min 4,8 C 5,4 km/h (1 Bft)
17.05.2016 16:46 12,8 C 14,9 C 58 % 1017,8 hPa 0,0 mm 8,0 km/h (2 Bft) W 270 0 min 4,7 C 16,1 km/h (3 Bft)
17.05.2016 16:50 12,8 C 14,9 C 58 % 1017,8 hPa 0,0 mm 8,0 km/h (2 Bft) W 270 0 min 4,7 C 16,1 km/h (3 Bft)
17.05.2016 16:55 12,1 C 14,1 C 57 % 1017,8 hPa 0,0 mm 9,2 km/h (2 Bft) N-NW 337 0 min 3,8 C 17,9 km/h (3 Bft)
17.05.2016 17:00 11,9 C 13,3 C 57 % 1017,8 hPa 0,0 mm 10,7 km/h (2 Bft) SW 225 0 min 3,7 C 8,9 km/h (2 Bft)
17.05.2016 17:05 11,6 C 12,6 C 58 % 1017,8 hPa 0,0 mm 10,1 km/h (2 Bft) W-NW 292 0 min 3,6 C 8,6 km/h (2 Bft)
17.05.2016 17:10 11,8 C 12,5 C 58 % 1017,8 hPa 0,0 mm 8,9 km/h (2 Bft) W 270 0 min 3,8 C 8,0 km/h (2 Bft)
17.05.2016 17:15 12,2 C 13,1 C 59 % 1017,8 hPa 0,0 mm 6,9 km/h (2 Bft) W 270 0 min 4,4 C 0,0 km/h (0 Bft)
17.05.2016 17:20 12,3 C 13,4 C 59 % 1017,8 hPa 0,0 mm 6,9 km/h (2 Bft) W 270 0 min 4,5 C 10,7 km/h (2 Bft)
17.05.2016 17:25 12,6 C 14,0 C 59 % 1017,8 hPa 0,0 mm 7,2 km/h (2 Bft) S-SW 202 0 min 4,8 C 6,9 km/h (2 Bft)
17.05.2016 17:30 12,7 C 14,3 C 58 % 1017,8 hPa 0,0 mm 7,2 km/h (2 Bft) S-SO 157 0 min 4,7 C 11,9 km/h (2 Bft)
17.05.2016 17:35 12,1 C 14,1 C 58 % 1017,7 hPa 0,0 mm 8,0 km/h (2 Bft) S 180 0 min 4,1 C 7,7 km/h (2 Bft)
17.05.2016 17:40 11,8 C 13,6 C 58 % 1017,7 hPa 0,0 mm 10,1 km/h (2 Bft) W-SW 247 0 min 3,8 C 12,2 km/h (2 Bft)
17.05.2016 17:45 12,5 C 13,9 C 58 % 1017,7 hPa 0,0 mm 7,5 km/h (2 Bft) W-NW 292 0 min 4,5 C 3,0 km/h (1 Bft)
17.05.2016 17:50 12,3 C 14,0 C 58 % 1017,7 hPa 0,0 mm 5,7 km/h (1 Bft) W 270 0 min 4,3 C 11,9 km/h (2 Bft)
17.05.2016 17:55 12,6 C 14,1 C 58 % 1017,5 hPa 0,0 mm 7,5 km/h (2 Bft) W-NW 292 0 min 4,6 C 9,2 km/h (2 Bft)
17.05.2016 18:00 12,7 C 14,2 C 57 % 1017,5 hPa 0,0 mm 9,8 km/h (2 Bft) W 270 0 min 4,4 C 16,7 km/h (3 Bft)
17.05.2016 18:05 12,7 C 14,1 C 56 % 1017,5 hPa 0,0 mm 11,6 km/h (2 Bft) NW 315 0 min 4,2 C 17,0 km/h (3 Bft)
17.05.2016 18:10 12,8 C 14,1 C 56 % 1017,5 hPa 0,0 mm 12,8 km/h (3 Bft) SW 225 0 min 4,2 C 21,8 km/h (4 Bft)
17.05.2016 18:15 12,3 C 13,7 C 56 % 1017,4 hPa 0,0 mm 11,9 km/h (2 Bft) W-NW 292 0 min 3,8 C 7,7 km/h (2 Bft)
17.05.2016 18:20 12,1 C 13,5 C 57 % 1017,4 hPa 0,0 mm 10,4 km/h (2 Bft) NW 315 0 min 3,8 C 8,3 km/h (2 Bft)
17.05.2016 18:25 11,9 C 13,1 C 58 % 1017,4 hPa 0,0 mm 9,5 km/h (2 Bft) NW 315 0 min 3,9 C 11,6 km/h (2 Bft)
17.05.2016 18:30 11,7 C 12,6 C 58 % 1017,4 hPa 0,0 mm 9,5 km/h (2 Bft) NW 315 0 min 3,7 C 6,9 km/h (2 Bft)
17.05.2016 18:35 11,5 C 12,3 C 58 % 1017,4 hPa 0,0 mm 7,2 km/h (2 Bft) NW 315 0 min 3,5 C 8,9 km/h (2 Bft)
17.05.2016 18:40 11,5 C 12,2 C 59 % 1017,4 hPa 0,0 mm 4,5 km/h (1 Bft) W 270 0 min 3,8 C 0,0 km/h (0 Bft)
17.05.2016 18:45 11,5 C 12,1 C 59 % 1017,4 hPa 0,0 mm 5,4 km/h (1 Bft) NO 45 0 min 3,8 C 4,5 km/h (1 Bft)
17.05.2016 18:50 11,6 C 12,1 C 59 % 1017,4 hPa 0,0 mm 5,7 km/h (1 Bft) NW 315 0 min 3,9 C 4,5 km/h (1 Bft)
17.05.2016 18:55 11,9 C 12,4 C 59 % 1017,4 hPa 0,0 mm 3,6 km/h (1 Bft) NW 315 0 min 4,1 C 3,9 km/h (1 Bft)
17.05.2016 19:00 12,2 C 13,1 C 59 % 1017,4 hPa 0,0 mm 1,2 km/h (1 Bft) N-NW 337 0 min 4,4 C 4,5 km/h (1 Bft)
17.05.2016 19:05 12,3 C 13,9 C 59 % 1017,4 hPa 0,0 mm 2,4 km/h (1 Bft) W-NW 292 0 min 4,5 C 4,5 km/h (1 Bft)
17.05.2016 19:10 12,1 C 14,2 C 59 % 1017,4 hPa 0,0 mm 3,6 km/h (1 Bft) W-SW 247 0 min 4,3 C 8,3 km/h (2 Bft)
17.05.2016 19:15 11,8 C 13,5 C 58 % 1017,2 hPa 0,0 mm 6,0 km/h (2 Bft) NW 315 0 min 3,8 C 13,1 km/h (3 Bft)
17.05.2016 19:20 11,7 C 13,2 C 58 % 1017,2 hPa 0,0 mm 8,9 km/h (2 Bft) W 270 0 min 3,7 C 14,6 km/h (3 Bft)
17.05.2016 19:25 11,7 C 12,8 C 58 % 1017,2 hPa 0,0 mm 8,9 km/h (2 Bft) W-NW 292 0 min 3,7 C 6,3 km/h (2 Bft)
17.05.2016 19:30 11,7 C 13,0 C 58 % 1017,2 hPa 0,0 mm 6,3 km/h (2 Bft) W-SW 247 0 min 3,7 C 6,3 km/h (2 Bft)
17.05.2016 19:35 11,9 C 13,4 C 59 % 1017,2 hPa 0,0 mm 5,1 km/h (1 Bft) O-NO 67 0 min 4,1 C 10,7 km/h (2 Bft)
17.05.2016 19:40 11,9 C 14,0 C 58 % 1017,2 hPa 0,0 mm 6,0 km/h (2 Bft) W 270 0 min 3,9 C 5,1 km/h (1 Bft)
17.05.2016 19:45 11,9 C 14,0 C 58 % 1017,2 hPa 0,0 mm 6,0 km/h (2 Bft) NW 315 0 min 3,9 C 6,6 km/h (2 Bft)
17.05.2016 19:46 11,8 C 13,8 C 59 % 1017,2 hPa 0,0 mm 4,8 km/h (1 Bft) NW 315 0 min 4,1 C 0,0 km/h (0 Bft)
17.05.2016 19:51 11,4 C 13,3 C 59 % 1017,2 hPa 0,0 mm 5,1 km/h (1 Bft) NW 315 0 min 3,7 C 7,7 km/h (2 Bft)
17.05.2016 19:55 11,4 C 13,3 C 59 % 1017,2 hPa 0,0 mm 5,1 km/h (1 Bft) NW 315 0 min 3,7 C 7,7 km/h (2 Bft)
17.05.2016 20:00 11,1 C 12,6 C 59 % 1017,2 hPa 0,0 mm 4,8 km/h (1 Bft) W-NW 292 0 min 3,4 C 4,2 km/h (1 Bft)
17.05.2016 20:05 10,5 C 11,6 C 59 % 1017,2 hPa 0,0 mm 2,7 km/h (1 Bft) W-NW 292 0 min 2,8 C 0,0 km/h (0 Bft)
17.05.2016 20:10 10,3 C 11,1 C 59 % 1017,2 hPa 0,0 mm 0,9 km/h (0 Bft) S 180 0 min 2,6 C 0,0 km/h (0 Bft)
17.05.2016 20:15 9,9 C 10,4 C 59 % 1017,2 hPa 0,0 mm 0,0 km/h (0 Bft) W-NW 292 0 min 2,3 C 0,0 km/h (0 Bft)
17.05.2016 20:20 9,9 C 10,1 C 60 % 1017,2 hPa 0,0 mm 0,0 km/h (0 Bft) N-NW 337 0 min 2,5 C 0,0 km/h (0 Bft)
17.05.2016 20:25 9,7 C 9,9 C 61 % 1017,2 hPa 0,0 mm 0,0 km/h (0 Bft) SO 135 0 min 2,5 C 0,0 km/h (0 Bft)
17.05.2016 20:30 9,6 C 9,9 C 61 % 1017,2 hPa 0,0 mm 0,0 km/h (0 Bft) SO 135 0 min 2,5 C 0,0 km/h (0 Bft)
17.05.2016 20:35 9,3 C 9,8 C 63 % 1017,2 hPa 0,0 mm 0,3 km/h (0 Bft) S 180 0 min 2,6 C 4,5 km/h (1 Bft)
17.05.2016 20:40 9,2 C 9,8 C 65 % 1017,2 hPa 0,0 mm 0,9 km/h (0 Bft) S-SO 157 0 min 3,0 C 0,0 km/h (0 Bft)
17.05.2016 20:45 9,0 C 9,3 C 67 % 1017,2 hPa 0,0 mm 0,9 km/h (0 Bft) S-SO 157 0 min 3,2 C 0,0 km/h (0 Bft)
17.05.2016 20:50 8,7 C 9,0 C 69 % 1017,2 hPa 0,0 mm 0,3 km/h (0 Bft) SO 135 0 min 3,3 C 0,0 km/h (0 Bft)
17.05.2016 20:55 8,7 C 8,7 C 69 % 1017,1 hPa 0,0 mm 0,3 km/h (0 Bft) S-SO 157 0 min 3,3 C 3,9 km/h (1 Bft)
17.05.2016 21:00 8,7 C 8,6 C 70 % 1017,1 hPa 0,0 mm 1,2 km/h (1 Bft) S-SO 157 0 min 3,5 C 4,5 km/h (1 Bft)
17.05.2016 21:05 8,6 C 8,5 C 70 % 1017,1 hPa 0,0 mm 2,1 km/h (1 Bft) S 180 0 min 3,4 C 3,0 km/h (1 Bft)
17.05.2016 21:10 8,7 C 8,6 C 70 % 1017,1 hPa 0,0 mm 1,5 km/h (1 Bft) S 180 0 min 3,5 C 0,0 km/h (0 Bft)
17.05.2016 21:15 8,6 C 8,5 C 70 % 1017,2 hPa 0,0 mm 0,3 km/h (0 Bft) S-SO 157 0 min 3,4 C 0,0 km/h (0 Bft)
17.05.2016 21:20 8,5 C 8,4 C 70 % 1017,2 hPa 0,0 mm 0,3 km/h (0 Bft) SO 135 0 min 3,3 C 0,0 km/h (0 Bft)
17.05.2016 21:25 7,8 C 7,8 C 70 % 1017,2 hPa 0,0 mm 0,0 km/h (0 Bft) N-NW 337 0 min 2,7 C 0,0 km/h (0 Bft)
17.05.2016 21:30 7,6 C 7,5 C 71 % 1017,2 hPa 0,0 mm 0,0 km/h (0 Bft) S-SO 157 0 min 2,7 C 0,0 km/h (0 Bft)
17.05.2016 21:35 7,6 C 7,4 C 73 % 1017,2 hPa 0,0 mm 0,0 km/h (0 Bft) S-SO 157 0 min 3,1 C 0,0 km/h (0 Bft)
17.05.2016 21:40 7,6 C 7,4 C 72 % 1017,2 hPa 0,0 mm 0,0 km/h (0 Bft) S-SO 157 0 min 2,9 C 0,0 km/h (0 Bft)
17.05.2016 21:45 7,2 C 7,0 C 74 % 1017,2 hPa 0,0 mm 0,0 km/h (0 Bft) O-NO 67 0 min 2,9 C 0,0 km/h (0 Bft)
17.05.2016 21:50 7,2 C 7,0 C 74 % 1017,2 hPa 0,0 mm 0,0 km/h (0 Bft) S 180 0 min 2,9 C 0,0 km/h (0 Bft)
17.05.2016 21:55 7,1 C 6,9 C 76 % 1017,5 hPa 0,0 mm 0,0 km/h (0 Bft) O-SO 112 0 min 3,2 C 0,0 km/h (0 Bft)
17.05.2016 22:00 7,2 C 7,0 C 77 % 1017,5 hPa 0,0 mm 0,3 km/h (0 Bft) S-SO 157 0 min 3,4 C 0,0 km/h (0 Bft)
17.05.2016 22:05 7,1 C 7,0 C 76 % 1017,5 hPa 0,0 mm 1,2 km/h (1 Bft) NW 315 0 min 3,2 C 3,3 km/h (1 Bft)
17.05.2016 22:10 6,9 C 6,8 C 76 % 1017,5 hPa 0,0 mm 0,9 km/h (0 Bft) S-SO 157 0 min 3,0 C 0,0 km/h (0 Bft)
17.05.2016 22:15 7,0 C 6,9 C 76 % 1017,5 hPa 0,0 mm 0,3 km/h (0 Bft) NO 45 0 min 3,1 C 0,0 km/h (0 Bft)
17.05.2016 22:20 6,9 C 6,8 C 77 % 1017,5 hPa 0,0 mm 0,0 km/h (0 Bft) S-SO 157 0 min 3,2 C 0,0 km/h (0 Bft)
17.05.2016 22:25 6,9 C 6,7 C 78 % 1017,5 hPa 0,0 mm 0,0 km/h (0 Bft) S-SO 157 0 min 3,3 C 0,0 km/h (0 Bft)
17.05.2016 22:30 6,7 C 6,5 C 79 % 1017,5 hPa 0,0 mm 0,0 km/h (0 Bft) O-NO 67 0 min 3,3 C 0,0 km/h (0 Bft)
17.05.2016 22:35 6,6 C 6,4 C 79 % 1017,4 hPa 0,0 mm 0,0 km/h (0 Bft) S 180 0 min 3,2 C 0,0 km/h (0 Bft)
17.05.2016 22:40 6,5 C 6,3 C 80 % 1017,4 hPa 0,0 mm 0,0 km/h (0 Bft) O-SO 112 0 min 3,3 C 0,0 km/h (0 Bft)
17.05.2016 22:45 6,5 C 6,3 C 80 % 1017,4 hPa 0,0 mm 0,6 km/h (0 Bft) S-SO 157 0 min 3,3 C 3,0 km/h (1 Bft)
17.05.2016 22:50 6,6 C 6,4 C 80 % 1017,4 hPa 0,0 mm 1,2 km/h (1 Bft) SO 135 0 min 3,4 C 0,0 km/h (0 Bft)
17.05.2016 22:51 6,3 C 6,2 C 79 % 1017,5 hPa 0,0 mm 1,8 km/h (1 Bft) S 180 0 min 2,9 C 3,9 km/h (1 Bft)
17.05.2016 22:52 6,3 C 6,2 C 79 % 1017,5 hPa 0,0 mm 1,8 km/h (1 Bft) S 180 0 min 2,9 C 3,9 km/h (1 Bft)
17.05.2016 22:55 6,3 C 6,2 C 79 % 1017,5 hPa 0,0 mm 1,8 km/h (1 Bft) S 180 0 min 2,9 C 3,9 km/h (1 Bft)
17.05.2016 23:00 6,3 C 6,2 C 80 % 1017,5 hPa 0,0 mm 1,2 km/h (1 Bft) SO 135 0 min 3,1 C 0,0 km/h (0 Bft)
17.05.2016 23:05 6,3 C 6,2 C 80 % 1017,5 hPa 0,0 mm 0,3 km/h (0 Bft) S-SO 157 0 min 3,1 C 0,0 km/h (0 Bft)
17.05.2016 23:10 6,5 C 6,4 C 80 % 1017,5 hPa 0,0 mm 0,0 km/h (0 Bft) SO 135 0 min 3,3 C 0,0 km/h (0 Bft)
17.05.2016 23:15 6,5 C 6,4 C 80 % 1017,4 hPa 0,0 mm 0,6 km/h (0 Bft) W 270 0 min 3,3 C 0,0 km/h (0 Bft)
17.05.2016 23:20 6,4 C 6,3 C 80 % 1017,4 hPa 0,0 mm 0,6 km/h (0 Bft) S 180 0 min 3,2 C 0,0 km/h (0 Bft)
17.05.2016 23:25 6,5 C 6,3 C 80 % 1017,4 hPa 0,0 mm 0,0 km/h (0 Bft) S-SO 157 0 min 3,3 C 0,0 km/h (0 Bft)
17.05.2016 23:30 6,6 C 6,4 C 80 % 1017,4 hPa 0,0 mm 0,0 km/h (0 Bft) S 180 0 min 3,4 C 0,0 km/h (0 Bft)
17.05.2016 23:35 6,4 C 6,3 C 80 % 1017,5 hPa 0,0 mm 0,0 km/h (0 Bft) O 90 0 min 3,2 C 0,0 km/h (0 Bft)
17.05.2016 23:40 6,4 C 6,2 C 81 % 1017,5 hPa 0,0 mm 0,0 km/h (0 Bft) W-SW 247 0 min 3,4 C 0,0 km/h (0 Bft)
17.05.2016 23:45 6,2 C 6,1 C 81 % 1017,5 hPa 0,0 mm 0,9 km/h (0 Bft) NO 45 0 min 3,2 C 0,0 km/h (0 Bft)
17.05.2016 23:50 6,1 C 6,0 C 80 % 1017,5 hPa 0,0 mm 0,9 km/h (0 Bft) O-NO 67 0 min 2,9 C 0,0 km/h (0 Bft)
17.05.2016 23:55 6,0 C 5,8 C 80 % 1017,4 hPa 0,0 mm 0,0 km/h (0 Bft) O 90 0 min 2,8 C 0,0 km/h (0 Bft)
_ Min-Zeit 02:40 02:40 15:10 21:10 - 23:55 - - - 02:40 23:55
Minimum _ 3,0 C 2,7 C 54 % 1017,1 hPa - 0,0 km/h (0 Bft) - - - 1,2 C 0,0 km/h (0 Bft)
_ Max-Zeit 15:10 15:10 06:10 00:10 00:15 13:05 - - 16:30 13:00 15:05
Maximum _ 16,2 C 19,4 C 90 % 1019,2 hPa 0,7 mm 14,6 km/h
W-NW (3 Bft)
- - 5 min 7,5 C 35,5 km/h
W-NW (5 Bft)
Durchschnitt _ 8,0 C 8,7 C 75 % 1018,1 hPa #0,7 mm 4,9 km/h (1 Bft) W - #3:20 h 3,5 C 6,9 km/h (2 Bft)